Location: Borovka
(49.7741°N, 14.5280°E)
Time: 22:09:48
(UTC+00:00)

DOVE 4 - Visible Passes

Search period start: 12 March 2026 00:00
Search period end: 22 March 2026 00:00
Orbit: 572 x 756 km, 97.7° (Epoch: 12 March)

Date Brightness Start Highest point End Pass type
(mag) Time Alt. Az. Time Alt. Az. Time Alt. Az.
12 Mar ? 18:35:19 10° NNE 18:39:53 74° ESE 18:44:41 10° S visible
12 Mar ? 20:13:29 10° NNW 20:16:28 17° WNW 20:19:30 10° W visible
13 Mar ? 04:06:14 10° E 04:08:23 14° ENE 04:10:34 10° NNE visible
13 Mar ? 19:06:11 10° N 19:10:42 59° WNW 19:15:25 10° SSW visible
14 Mar ? 04:35:30 10° ESE 04:38:52 25° ENE 04:42:19 10° N visible
14 Mar ? 18:00:08 10° NNE 18:04:25 36° E 18:08:53 10° SSE visible
14 Mar ? 19:37:18 10° N 19:41:23 32° WNW 19:45:39 10° SW visible
15 Mar ? 18:30:43 10° NNE 18:35:21 69° ESE 18:40:12 10° S visible
15 Mar ? 20:08:44 10° NNW 20:11:57 19° WNW 20:15:16 10° WSW visible
16 Mar ? 04:01:51 10° E 04:03:50 13° ENE 04:05:52 10° NNE visible
16 Mar ? 19:01:33 10° N 19:06:10 64° WNW 19:10:59 10° SSW visible
16 Mar ? 20:41:04 10° NW 20:42:23 11° NW 20:43:42 10° WNW visible
17 Mar ? 04:30:59 10° ESE 04:34:17 24° ENE 04:37:42 10° N visible
17 Mar ? 17:55:33 10° NNE 17:59:51 34° E 18:04:17 10° SSE visible
17 Mar ? 19:32:36 10° N 19:36:51 35° WNW 19:41:16 10° SW visible
18 Mar ? 18:26:05 10° NNE 18:30:47 64° E 18:35:41 10° S visible
18 Mar ? 20:03:57 10° NNW 20:07:25 21° WNW 20:10:59 10° WSW visible
19 Mar ? 03:57:26 10° E 03:59:16 13° NE 04:01:06 10° NNE visible
19 Mar ? 18:56:52 10° N 19:01:36 70° WNW 19:06:30 10° SSW visible
19 Mar ? 20:35:58 10° NNW 20:37:51 12° NW 20:39:46 10° WNW visible
20 Mar ? 04:26:25 10° ESE 04:29:40 22° ENE 04:33:02 10° N visible
20 Mar ? 17:50:57 10° NNE 17:55:14 32° E 17:59:39 10° SSE visible
20 Mar ? 19:27:53 10° N 19:32:18 39° WNW 19:36:51 10° SW visible
21 Mar ? 18:21:26 10° NNE 18:26:11 59° E 18:31:06 10° S visible
21 Mar ? 19:59:10 10° NNW 20:02:51 23° WNW 20:06:39 10° WSW visible
